owner,sensor,date,latitude,longitude,sea_surface_height_above_sea_level,qcFlag 
TCOON,ioos:station:TCOON:009:1,2019-09-01T00:24:00Z,27.8398,-97.0727,1.725,11111222 
TCOON,ioos:station:TCOON:009:1,2019-09-01T01:24:00Z,27.8398,-97.0727,1.676,11111222 
TCOON,ioos:station:TCOON:009:1,2019-09-01T02:24:00Z,27.8398,-97.0727,1.617,11111222 
TCOON,ioos:station:TCOON:009:1,2019-09-01T03:24:00Z,27.8398,-97.0727,1.581,11111222 
TCOON,ioos:station:TCOON:009:1,2019-09-01T04:24:00Z,27.8398,-97.0727,1.559,11111222 
TCOON,ioos:station:TCOON:009:1,2019-09-01T05:24:00Z,27.8398,-97.0727,1.602,11111222 
TCOON,ioos:station:TCOON:009:1,2019-09-01T06:24:00Z,27.8398,-97.0727,1.633,11111222 
TCOON,ioos:station:TCOON:009:1,2019-09-01T07:24:00Z,27.8398,-97.0727,1.666,11111222 
TCOON,ioos:station:TCOON:009:1,2019-09-01T08:24:00Z,27.8398,-97.0727,1.75,11111222 
TCOON,ioos:station:TCOON:009:1,2019-09-01T09:24:00Z,27.8398,-97.0727,1.794,11111222 
TCOON,ioos:station:TCOON:009:1,2019-09-01T10:24:00Z,27.8398,-97.0727,1.792,11111222 
TCOON,ioos:station:TCOON:009:1,2019-09-01T11:24:00Z,27.8398,-97.0727,1.791,11111222 
TCOON,ioos:station:TCOON:009:1,2019-09-01T12:24:00Z,27.8398,-97.0727,1.793,11111222 
TCOON,ioos:station:TCOON:009:1,2019-09-01T13:24:00Z,27.8398,-97.0727,1.79,11111222 
TCOON,ioos:station:TCOON:009:1,2019-09-01T14:24:00Z,27.8398,-97.0727,1.759,11111222 
TCOON,ioos:station:TCOON:009:1,2019-09-01T15:24:00Z,27.8398,-97.0727,1.753,11111222 
TCOON,ioos:station:TCOON:009:1,2019-09-01T16:24:00Z,27.8398,-97.0727,1.773,11111222 
TCOON,ioos:station:TCOON:009:1,2019-09-01T17:24:00Z,27.8398,-97.0727,1.742,11111222 
TCOON,ioos:station:TCOON:009:1,2019-09-01T18:24:00Z,27.8398,-97.0727,1.783,11111222 
TCOON,ioos:station:TCOON:009:1,2019-09-01T19:24:00Z,27.8398,-97.0727,1.797,11111222 
TCOON,ioos:station:TCOON:009:1,2019-09-01T20:24:00Z,27.8398,-97.0727,1.844,11111222 
TCOON,ioos:station:TCOON:009:1,2019-09-01T21:24:00Z,27.8398,-97.0727,1.872,11111222 
TCOON,ioos:station:TCOON:009:1,2019-09-01T22:24:00Z,27.8398,-97.0727,1.873,11111222 
TCOON,ioos:station:TCOON:009:1,2019-09-01T23:24:00Z,27.8398,-97.0727,1.88,11111222 
TCOON,ioos:station:TCOON:009:1,2019-09-02T00:24:00Z,27.8398,-97.0727,1.854,11111222 
TCOON,ioos:station:TCOON:009:1,2019-09-02T01:24:00Z,27.8398,-97.0727,1.825,11111222 
TCOON,ioos:station:TCOON:009:1,2019-09-02T02:24:00Z,27.8398,-97.0727,1.78,11111222 
TCOON,ioos:station:TCOON:009:1,2019-09-02T03:24:00Z,27.8398,-97.0727,1.773,11111222 
TCOON,ioos:station:TCOON:009:1,2019-09-02T04:24:00Z,27.8398,-97.0727,1.756,11111222 
TCOON,ioos:station:TCOON:009:1,2019-09-02T05:24:00Z,27.8398,-97.0727,1.735,11111222 
TCOON,ioos:station:TCOON:009:1,2019-09-02T06:24:00Z,27.8398,-97.0727,1.773,11111222 
TCOON,ioos:station:TCOON:009:1,2019-09-02T07:24:00Z,27.8398,-97.0727,1.796,11111222 
TCOON,ioos:station:TCOON:009:1,2019-09-02T08:24:00Z,27.8398,-97.0727,1.853,11111222 
TCOON,ioos:station:TCOON:009:1,2019-09-02T09:24:00Z,27.8398,-97.0727,1.875,11111222 
TCOON,ioos:station:TCOON:009:1,2019-09-02T10:24:00Z,27.8398,-97.0727,1.909,11111222 
TCOON,ioos:station:TCOON:009:1,2019-09-02T11:24:00Z,27.8398,-97.0727,1.872,11111222 
TCOON,ioos:station:TCOON:009:1,2019-09-02T12:24:00Z,27.8398,-97.0727,1.875,11111222 
TCOON,ioos:station:TCOON:009:1,2019-09-02T15:24:00Z,27.8398,-97.0727,1.794,11111222 
TCOON,ioos:station:TCOON:009:1,2019-09-02T16:24:00Z,27.8398,-97.0727,1.824,11111222 
TCOON,ioos:station:TCOON:009:1,2019-09-02T17:24:00Z,27.8398,-97.0727,1.79,11111222 
TCOON,ioos:station:TCOON:009:1,2019-09-02T18:24:00Z,27.8398,-97.0727,1.779,11111222 
TCOON,ioos:station:TCOON:009:1,2019-09-02T19:24:00Z,27.8398,-97.0727,1.814,11111222 
TCOON,ioos:station:TCOON:009:1,2019-09-02T20:24:00Z,27.8398,-97.0727,1.883,11111222 
TCOON,ioos:station:TCOON:009:1,2019-09-02T21:24:00Z,27.8398,-97.0727,1.917,11111222 
TCOON,ioos:station:TCOON:009:1,2019-09-02T22:24:00Z,27.8398,-97.0727,1.947,11111222 
TCOON,ioos:station:TCOON:009:1,2019-09-02T23:24:00Z,27.8398,-97.0727,1.943,11111222 
TCOON,ioos:station:TCOON:009:1,2019-09-03T00:24:00Z,27.8398,-97.0727,1.963,11111222 
TCOON,ioos:station:TCOON:009:1,2019-09-03T01:24:00Z,27.8398,-97.0727,1.934,11111222 
TCOON,ioos:station:TCOON:009:1,2019-09-03T02:24:00Z,27.8398,-97.0727,1.943,11111222 
TCOON,ioos:station:TCOON:009:1,2019-09-03T03:24:00Z,27.8398,-97.0727,1.938,11111222 
TCOON,ioos:station:TCOON:009:1,2019-09-03T04:24:00Z,27.8398,-97.0727,1.895,11111222 
TCOON,ioos:station:TCOON:009:1,2019-09-03T05:24:00Z,27.8398,-97.0727,1.915,11111222 
TCOON,ioos:station:TCOON:009:1,2019-09-03T06:24:00Z,27.8398,-97.0727,1.922,11111222 
TCOON,ioos:station:TCOON:009:1,2019-09-03T07:24:00Z,27.8398,-97.0727,1.908,11111222 
TCOON,ioos:station:TCOON:009:1,2019-09-03T08:24:00Z,27.8398,-97.0727,1.934,11111222 
TCOON,ioos:station:TCOON:009:1,2019-09-03T09:24:00Z,27.8398,-97.0727,1.977,11111222 
TCOON,ioos:station:TCOON:009:1,2019-09-03T10:24:00Z,27.8398,-97.0727,1.983,11111222 
TCOON,ioos:station:TCOON:009:1,2019-09-03T11:24:00Z,27.8398,-97.0727,1.962,11111222 
TCOON,ioos:station:TCOON:009:1,2019-09-03T12:24:00Z,27.8398,-97.0727,1.99,11111222 
TCOON,ioos:station:TCOON:009:1,2019-09-03T13:24:00Z,27.8398,-97.0727,1.943,11111222 
TCOON,ioos:station:TCOON:009:1,2019-09-03T14:30:00Z,27.8398,-97.0727,1.856,11111222 
TCOON,ioos:station:TCOON:009:1,2019-09-03T15:24:00Z,27.8398,-97.0727,1.897,11111222 
TCOON,ioos:station:TCOON:009:1,2019-09-03T16:24:00Z,27.8398,-97.0727,1.85,11111222 
TCOON,ioos:station:TCOON:009:1,2019-09-03T17:30:00Z,27.8398,-97.0727,1.789,11111222 
TCOON,ioos:station:TCOON:009:1,2019-09-03T18:24:00Z,27.8398,-97.0727,1.84,11111222 
TCOON,ioos:station:TCOON:009:1,2019-09-03T19:24:00Z,27.8398,-97.0727,1.865,11111222 
TCOON,ioos:station:TCOON:009:1,2019-09-03T20:24:00Z,27.8398,-97.0727,1.854,11111222 
TCOON,ioos:station:TCOON:009:1,2019-09-03T21:24:00Z,27.8398,-97.0727,1.912,11111222 
TCOON,ioos:station:TCOON:009:1,2019-09-03T22:24:00Z,27.8398,-97.0727,1.976,11111222 
TCOON,ioos:station:TCOON:009:1,2019-09-03T23:24:00Z,27.8398,-97.0727,1.98,11111222 
TCOON,ioos:station:TCOON:009:1,2019-09-04T00:24:00Z,27.8398,-97.0727,2.031,11111222 
TCOON,ioos:station:TCOON:009:1,2019-09-04T01:24:00Z,27.8398,-97.0727,2.014,11111222 
TCOON,ioos:station:TCOON:009:1,2019-09-04T02:24:00Z,27.8398,-97.0727,2.024,11111222 
TCOON,ioos:station:TCOON:009:1,2019-09-04T03:24:00Z,27.8398,-97.0727,2.04,11111222 
TCOON,ioos:station:TCOON:009:1,2019-09-04T04:24:00Z,27.8398,-97.0727,2.046,11111222 
TCOON,ioos:station:TCOON:009:1,2019-09-04T05:24:00Z,27.8398,-97.0727,2.03,11111222 
TCOON,ioos:station:TCOON:009:1,2019-09-04T06:24:00Z,27.8398,-97.0727,2.039,11111222 
TCOON,ioos:station:TCOON:009:1,2019-09-04T07:24:00Z,27.8398,-97.0727,2.087,11111222 
TCOON,ioos:station:TCOON:009:1,2019-09-04T08:24:00Z,27.8398,-97.0727,2.077,11111222 
TCOON,ioos:station:TCOON:009:1,2019-09-04T09:24:00Z,27.8398,-97.0727,2.067,11111222 
TCOON,ioos:station:TCOON:009:1,2019-09-04T10:24:00Z,27.8398,-97.0727,2.089,11111222 
TCOON,ioos:station:TCOON:009:1,2019-09-04T11:24:00Z,27.8398,-97.0727,2.068,11111222 
TCOON,ioos:station:TCOON:009:1,2019-09-04T12:24:00Z,27.8398,-97.0727,2.068,11111222 
TCOON,ioos:station:TCOON:009:1,2019-09-04T13:24:00Z,27.8398,-97.0727,2.054,11111222 
TCOON,ioos:station:TCOON:009:1,2019-09-04T14:30:00Z,27.8398,-97.0727,2.037,11111222 
TCOON,ioos:station:TCOON:009:1,2019-09-04T15:24:00Z,27.8398,-97.0727,1.974,11111222 
TCOON,ioos:station:TCOON:009:1,2019-09-04T16:24:00Z,27.8398,-97.0727,1.938,11111222 
TCOON,ioos:station:TCOON:009:1,2019-09-04T17:30:00Z,27.8398,-97.0727,1.934,11111222 
TCOON,ioos:station:TCOON:009:1,2019-09-04T18:24:00Z,27.8398,-97.0727,1.863,11111222 
TCOON,ioos:station:TCOON:009:1,2019-09-04T19:24:00Z,27.8398,-97.0727,1.861,11111222 
TCOON,ioos:station:TCOON:009:1,2019-09-04T20:24:00Z,27.8398,-97.0727,1.872,11111222 
TCOON,ioos:station:TCOON:009:1,2019-09-04T21:24:00Z,27.8398,-97.0727,1.916,11111222 
TCOON,ioos:station:TCOON:009:1,2019-09-04T22:24:00Z,27.8398,-97.0727,1.95,11111222 
TCOON,ioos:station:TCOON:009:1,2019-09-04T23:24:00Z,27.8398,-97.0727,1.959,11111222 
TCOON,ioos:station:TCOON:009:1,2019-09-05T00:24:00Z,27.8398,-97.0727,2.006,11111222 
TCOON,ioos:station:TCOON:009:1,2019-09-05T01:24:00Z,27.8398,-97.0727,2.061,11111222 
TCOON,ioos:station:TCOON:009:1,2019-09-05T02:24:00Z,27.8398,-97.0727,2.05,11111222 
TCOON,ioos:station:TCOON:009:1,2019-09-05T03:24:00Z,27.8398,-97.0727,2.064,11111222 
TCOON,ioos:station:TCOON:009:1,2019-09-05T04:24:00Z,27.8398,-97.0727,2.062,11111222 
TCOON,ioos:station:TCOON:009:1,2019-09-05T05:24:00Z,27.8398,-97.0727,2.044,11111222 
TCOON,ioos:station:TCOON:009:1,2019-09-05T06:24:00Z,27.8398,-97.0727,2.033,11111222 
TCOON,ioos:station:TCOON:009:1,2019-09-05T07:24:00Z,27.8398,-97.0727,2.056,11111222 
TCOON,ioos:station:TCOON:009:1,2019-09-05T08:24:00Z,27.8398,-97.0727,2.074,11111222 
TCOON,ioos:station:TCOON:009:1,2019-09-05T09:24:00Z,27.8398,-97.0727,2.063,11111222 
TCOON,ioos:station:TCOON:009:1,2019-09-05T10:24:00Z,27.8398,-97.0727,2.045,11111222 
TCOON,ioos:station:TCOON:009:1,2019-09-05T11:24:00Z,27.8398,-97.0727,2.009,11111222 
TCOON,ioos:station:TCOON:009:1,2019-09-05T12:24:00Z,27.8398,-97.0727,2.008,11111222 
TCOON,ioos:station:TCOON:009:1,2019-09-05T13:24:00Z,27.8398,-97.0727,1.974,11111222 
TCOON,ioos:station:TCOON:009:1,2019-09-05T14:24:00Z,27.8398,-97.0727,1.907,11111222 
TCOON,ioos:station:TCOON:009:1,2019-09-05T15:24:00Z,27.8398,-97.0727,1.869,11111222 
TCOON,ioos:station:TCOON:009:1,2019-09-05T16:24:00Z,27.8398,-97.0727,1.814,11111222 
TCOON,ioos:station:TCOON:009:1,2019-09-05T17:24:00Z,27.8398,-97.0727,1.741,11111222 
TCOON,ioos:station:TCOON:009:1,2019-09-05T18:24:00Z,27.8398,-97.0727,1.731,11111222 
TCOON,ioos:station:TCOON:009:1,2019-09-05T19:24:00Z,27.8398,-97.0727,1.674,11111222 
TCOON,ioos:station:TCOON:009:1,2019-09-05T20:24:00Z,27.8398,-97.0727,1.666,11111222 
TCOON,ioos:station:TCOON:009:1,2019-09-05T21:24:00Z,27.8398,-97.0727,1.671,11111222 
TCOON,ioos:station:TCOON:009:1,2019-09-05T22:24:00Z,27.8398,-97.0727,1.684,11111222 
TCOON,ioos:station:TCOON:009:1,2019-09-05T23:24:00Z,27.8398,-97.0727,1.732,11111222 
TCOON,ioos:station:TCOON:009:1,2019-09-06T00:24:00Z,27.8398,-97.0727,1.749,11111222 
TCOON,ioos:station:TCOON:009:1,2019-09-06T01:24:00Z,27.8398,-97.0727,1.789,11111222 
TCOON,ioos:station:TCOON:009:1,2019-09-06T02:24:00Z,27.8398,-97.0727,1.808,11111222 
TCOON,ioos:station:TCOON:009:1,2019-09-06T03:24:00Z,27.8398,-97.0727,1.848,11111222 
TCOON,ioos:station:TCOON:009:1,2019-09-06T04:24:00Z,27.8398,-97.0727,1.851,11111222 
TCOON,ioos:station:TCOON:009:1,2019-09-06T06:42:00Z,27.8398,-97.0727,1.847,11111222 
TCOON,ioos:station:TCOON:009:1,2019-09-06T07:36:00Z,27.8398,-97.0727,1.836,11111222 
TCOON,ioos:station:TCOON:009:1,2019-09-06T08:24:00Z,27.8398,-97.0727,1.846,11111222 
TCOON,ioos:station:TCOON:009:1,2019-09-06T09:24:00Z,27.8398,-97.0727,1.815,11111222 
TCOON,ioos:station:TCOON:009:1,2019-09-06T10:24:00Z,27.8398,-97.0727,1.808,11111222 
TCOON,ioos:station:TCOON:009:1,2019-09-06T11:24:00Z,27.8398,-97.0727,1.789,11111222 
TCOON,ioos:station:TCOON:009:1,2019-09-06T12:24:00Z,27.8398,-97.0727,1.782,11111222 
TCOON,ioos:station:TCOON:009:1,2019-09-06T13:24:00Z,27.8398,-97.0727,1.762,11111222 
TCOON,ioos:station:TCOON:009:1,2019-09-06T14:24:00Z,27.8398,-97.0727,1.697,11111222 
TCOON,ioos:station:TCOON:009:1,2019-09-06T15:24:00Z,27.8398,-97.0727,1.719,11111222 
TCOON,ioos:station:TCOON:009:1,2019-09-06T16:24:00Z,27.8398,-97.0727,1.636,11111222 
TCOON,ioos:station:TCOON:009:1,2019-09-06T17:24:00Z,27.8398,-97.0727,1.667,11111222 
TCOON,ioos:station:TCOON:009:1,2019-09-06T18:24:00Z,27.8398,-97.0727,1.594,11111222 
TCOON,ioos:station:TCOON:009:1,2019-09-06T19:24:00Z,27.8398,-97.0727,1.537,11111222 
TCOON,ioos:station:TCOON:009:1,2019-09-06T20:24:00Z,27.8398,-97.0727,1.484,11111222 
TCOON,ioos:station:TCOON:009:1,2019-09-06T21:24:00Z,27.8398,-97.0727,1.549,11111222 
TCOON,ioos:station:TCOON:009:1,2019-09-06T22:24:00Z,27.8398,-97.0727,1.522,11111222 
TCOON,ioos:station:TCOON:009:1,2019-09-06T23:24:00Z,27.8398,-97.0727,1.519,11111222 
TCOON,ioos:station:TCOON:009:1,2019-09-07T00:24:00Z,27.8398,-97.0727,1.644,11111222 
TCOON,ioos:station:TCOON:009:1,2019-09-07T01:24:00Z,27.8398,-97.0727,1.677,11111222 
TCOON,ioos:station:TCOON:009:1,2019-09-07T02:24:00Z,27.8398,-97.0727,1.691,11111222 
TCOON,ioos:station:TCOON:009:1,2019-09-07T03:24:00Z,27.8398,-97.0727,1.753,11111222 
TCOON,ioos:station:TCOON:009:1,2019-09-07T04:24:00Z,27.8398,-97.0727,1.812,11111222 
TCOON,ioos:station:TCOON:009:1,2019-09-07T05:24:00Z,27.8398,-97.0727,1.814,11111222 
TCOON,ioos:station:TCOON:009:1,2019-09-07T06:24:00Z,27.8398,-97.0727,1.85,11111222 
TCOON,ioos:station:TCOON:009:1,2019-09-07T07:24:00Z,27.8398,-97.0727,1.82,11111222 
TCOON,ioos:station:TCOON:009:1,2019-09-07T08:24:00Z,27.8398,-97.0727,1.827,11111222 
TCOON,ioos:station:TCOON:009:1,2019-09-07T09:24:00Z,27.8398,-97.0727,1.814,11111222 
TCOON,ioos:station:TCOON:009:1,2019-09-07T10:24:00Z,27.8398,-97.0727,1.901,11111222 
TCOON,ioos:station:TCOON:009:1,2019-09-07T11:24:00Z,27.8398,-97.0727,1.844,11111222 
TCOON,ioos:station:TCOON:009:1,2019-09-07T12:24:00Z,27.8398,-97.0727,1.79,11111222 
TCOON,ioos:station:TCOON:009:1,2019-09-07T13:24:00Z,27.8398,-97.0727,1.773,11111222 
TCOON,ioos:station:TCOON:009:1,2019-09-07T14:24:00Z,27.8398,-97.0727,1.749,11111222 
TCOON,ioos:station:TCOON:009:1,2019-09-07T15:24:00Z,27.8398,-97.0727,1.722,11111222 
TCOON,ioos:station:TCOON:009:1,2019-09-07T16:24:00Z,27.8398,-97.0727,1.699,11111222 
TCOON,ioos:station:TCOON:009:1,2019-09-07T17:24:00Z,27.8398,-97.0727,1.617,11111222 
TCOON,ioos:station:TCOON:009:1,2019-09-07T18:24:00Z,27.8398,-97.0727,1.609,11111222 
TCOON,ioos:station:TCOON:009:1,2019-09-07T19:24:00Z,27.8398,-97.0727,1.537,11111222 
TCOON,ioos:station:TCOON:009:1,2019-09-07T20:24:00Z,27.8398,-97.0727,1.472,11111222 
TCOON,ioos:station:TCOON:009:1,2019-09-07T21:24:00Z,27.8398,-97.0727,1.497,11111222 
TCOON,ioos:station:TCOON:009:1,2019-09-07T22:24:00Z,27.8398,-97.0727,1.505,11111222 
TCOON,ioos:station:TCOON:009:1,2019-09-07T23:24:00Z,27.8398,-97.0727,1.462,11111222 
TCOON,ioos:station:TCOON:009:1,2019-09-08T00:24:00Z,27.8398,-97.0727,1.463,11111222 
TCOON,ioos:station:TCOON:009:1,2019-09-08T01:24:00Z,27.8398,-97.0727,1.566,11111222 
TCOON,ioos:station:TCOON:009:1,2019-09-08T02:24:00Z,27.8398,-97.0727,1.621,11111222 
TCOON,ioos:station:TCOON:009:1,2019-09-08T03:24:00Z,27.8398,-97.0727,1.65,11111222 
TCOON,ioos:station:TCOON:009:1,2019-09-08T04:24:00Z,27.8398,-97.0727,1.718,11111222 
TCOON,ioos:station:TCOON:009:1,2019-09-08T05:24:00Z,27.8398,-97.0727,1.757,11111222 
TCOON,ioos:station:TCOON:009:1,2019-09-08T06:24:00Z,27.8398,-97.0727,1.762,11111222 
TCOON,ioos:station:TCOON:009:1,2019-09-08T07:24:00Z,27.8398,-97.0727,1.779,11111222 
TCOON,ioos:station:TCOON:009:1,2019-09-08T08:24:00Z,27.8398,-97.0727,1.806,11111222 
TCOON,ioos:station:TCOON:009:1,2019-09-08T09:24:00Z,27.8398,-97.0727,1.818,11111222 
TCOON,ioos:station:TCOON:009:1,2019-09-08T10:24:00Z,27.8398,-97.0727,1.806,11111222 
TCOON,ioos:station:TCOON:009:1,2019-09-08T11:24:00Z,27.8398,-97.0727,1.799,11111222 
TCOON,ioos:station:TCOON:009:1,2019-09-08T12:24:00Z,27.8398,-97.0727,1.823,11111222 
TCOON,ioos:station:TCOON:009:1,2019-09-08T13:24:00Z,27.8398,-97.0727,1.821,11111222 
TCOON,ioos:station:TCOON:009:1,2019-09-08T14:24:00Z,27.8398,-97.0727,1.772,11111222 
TCOON,ioos:station:TCOON:009:1,2019-09-08T15:24:00Z,27.8398,-97.0727,1.789,11111222 
TCOON,ioos:station:TCOON:009:1,2019-09-08T16:24:00Z,27.8398,-97.0727,1.799,11111222 
TCOON,ioos:station:TCOON:009:1,2019-09-08T17:24:00Z,27.8398,-97.0727,1.73,11111222 
TCOON,ioos:station:TCOON:009:1,2019-09-08T18:24:00Z,27.8398,-97.0727,1.696,11111222 
TCOON,ioos:station:TCOON:009:1,2019-09-08T19:24:00Z,27.8398,-97.0727,1.637,11111222 
TCOON,ioos:station:TCOON:009:1,2019-09-08T20:24:00Z,27.8398,-97.0727,1.597,11111222 
TCOON,ioos:station:TCOON:009:1,2019-09-08T21:24:00Z,27.8398,-97.0727,1.592,11111222 
TCOON,ioos:station:TCOON:009:1,2019-09-08T22:24:00Z,27.8398,-97.0727,1.537,11111222 
TCOON,ioos:station:TCOON:009:1,2019-09-08T23:24:00Z,27.8398,-97.0727,1.53,11111222 
TCOON,ioos:station:TCOON:009:1,2019-09-09T00:24:00Z,27.8398,-97.0727,1.531,11111222 
TCOON,ioos:station:TCOON:009:1,2019-09-09T01:24:00Z,27.8398,-97.0727,1.532,11111222 
TCOON,ioos:station:TCOON:009:1,2019-09-09T02:24:00Z,27.8398,-97.0727,1.597,11111222 
TCOON,ioos:station:TCOON:009:1,2019-09-09T03:24:00Z,27.8398,-97.0727,1.645,11111222 
TCOON,ioos:station:TCOON:009:1,2019-09-09T04:24:00Z,27.8398,-97.0727,1.721,11111222 
TCOON,ioos:station:TCOON:009:1,2019-09-09T05:24:00Z,27.8398,-97.0727,1.739,11111222 
TCOON,ioos:station:TCOON:009:1,2019-09-09T06:24:00Z,27.8398,-97.0727,1.784,11111222 
TCOON,ioos:station:TCOON:009:1,2019-09-09T07:24:00Z,27.8398,-97.0727,1.812,11111222 
TCOON,ioos:station:TCOON:009:1,2019-09-09T08:24:00Z,27.8398,-97.0727,1.812,11111222 
TCOON,ioos:station:TCOON:009:1,2019-09-09T09:24:00Z,27.8398,-97.0727,1.816,11111222 
TCOON,ioos:station:TCOON:009:1,2019-09-09T10:24:00Z,27.8398,-97.0727,1.812,11111222 
TCOON,ioos:station:TCOON:009:1,2019-09-09T11:24:00Z,27.8398,-97.0727,1.804,11111222 
TCOON,ioos:station:TCOON:009:1,2019-09-09T12:24:00Z,27.8398,-97.0727,1.807,11111222 
TCOON,ioos:station:TCOON:009:1,2019-09-09T13:24:00Z,27.8398,-97.0727,1.845,11111222 
TCOON,ioos:station:TCOON:009:1,2019-09-09T14:36:00Z,27.8398,-97.0727,1.835,11111222 
TCOON,ioos:station:TCOON:009:1,2019-09-09T15:24:00Z,27.8398,-97.0727,1.792,11111222 
TCOON,ioos:station:TCOON:009:1,2019-09-09T16:24:00Z,27.8398,-97.0727,1.785,11111222 
TCOON,ioos:station:TCOON:009:1,2019-09-09T17:24:00Z,27.8398,-97.0727,1.781,11111222 
TCOON,ioos:station:TCOON:009:1,2019-09-09T21:24:00Z,27.8398,-97.0727,1.639,11111222 
TCOON,ioos:station:TCOON:009:1,2019-09-09T22:24:00Z,27.8398,-97.0727,1.615,11111222 
TCOON,ioos:station:TCOON:009:1,2019-09-09T23:24:00Z,27.8398,-97.0727,1.572,11111222 
TCOON,ioos:station:TCOON:009:1,2019-09-10T00:24:00Z,27.8398,-97.0727,1.592,11111222 
TCOON,ioos:station:TCOON:009:1,2019-09-10T01:24:00Z,27.8398,-97.0727,1.596,11111222 
TCOON,ioos:station:TCOON:009:1,2019-09-10T02:24:00Z,27.8398,-97.0727,1.62,11111222 
TCOON,ioos:station:TCOON:009:1,2019-09-10T03:24:00Z,27.8398,-97.0727,1.665,11111222 
TCOON,ioos:station:TCOON:009:1,2019-09-10T04:24:00Z,27.8398,-97.0727,1.723,11111222 
TCOON,ioos:station:TCOON:009:1,2019-09-10T05:36:00Z,27.8398,-97.0727,1.78,11111222 
TCOON,ioos:station:TCOON:009:1,2019-09-10T06:24:00Z,27.8398,-97.0727,1.799,11111222 
TCOON,ioos:station:TCOON:009:1,2019-09-10T07:24:00Z,27.8398,-97.0727,1.819,11111222 
TCOON,ioos:station:TCOON:009:1,2019-09-10T08:24:00Z,27.8398,-97.0727,1.874,11111222 
TCOON,ioos:station:TCOON:009:1,2019-09-10T09:24:00Z,27.8398,-97.0727,1.883,11111222 
TCOON,ioos:station:TCOON:009:1,2019-09-10T10:24:00Z,27.8398,-97.0727,1.87,11111222 
TCOON,ioos:station:TCOON:009:1,2019-09-10T11:24:00Z,27.8398,-97.0727,1.861,11111222 
TCOON,ioos:station:TCOON:009:1,2019-09-10T12:24:00Z,27.8398,-97.0727,1.872,11111222 
TCOON,ioos:station:TCOON:009:1,2019-09-10T13:24:00Z,27.8398,-97.0727,1.868,11111222 
TCOON,ioos:station:TCOON:009:1,2019-09-10T14:24:00Z,27.8398,-97.0727,1.919,11111222 
TCOON,ioos:station:TCOON:009:1,2019-09-10T15:24:00Z,27.8398,-97.0727,1.904,11111222 
TCOON,ioos:station:TCOON:009:1,2019-09-10T16:24:00Z,27.8398,-97.0727,1.829,11111222 
TCOON,ioos:station:TCOON:009:1,2019-09-10T17:24:00Z,27.8398,-97.0727,1.858,11111222 
TCOON,ioos:station:TCOON:009:1,2019-09-10T18:24:00Z,27.8398,-97.0727,1.837,11111222 
TCOON,ioos:station:TCOON:009:1,2019-09-10T19:30:00Z,27.8398,-97.0727,1.776,11111222 
TCOON,ioos:station:TCOON:009:1,2019-09-10T20:24:00Z,27.8398,-97.0727,1.766,11111222 
TCOON,ioos:station:TCOON:009:1,2019-09-10T21:24:00Z,27.8398,-97.0727,1.697,11111222 
TCOON,ioos:station:TCOON:009:1,2019-09-10T22:24:00Z,27.8398,-97.0727,1.658,11111222 
TCOON,ioos:station:TCOON:009:1,2019-09-10T23:24:00Z,27.8398,-97.0727,1.624,11111222 
TCOON,ioos:station:TCOON:009:1,2019-09-11T00:24:00Z,27.8398,-97.0727,1.605,11111222 
TCOON,ioos:station:TCOON:009:1,2019-09-11T01:24:00Z,27.8398,-97.0727,1.616,11111222 
TCOON,ioos:station:TCOON:009:1,2019-09-11T02:24:00Z,27.8398,-97.0727,1.621,11111222 
TCOON,ioos:station:TCOON:009:1,2019-09-11T03:24:00Z,27.8398,-97.0727,1.66,11111222 
TCOON,ioos:station:TCOON:009:1,2019-09-11T04:24:00Z,27.8398,-97.0727,1.704,11111222 
TCOON,ioos:station:TCOON:009:1,2019-09-11T05:36:00Z,27.8398,-97.0727,1.762,11111222 
TCOON,ioos:station:TCOON:009:1,2019-09-11T06:24:00Z,27.8398,-97.0727,1.829,11111222 
TCOON,ioos:station:TCOON:009:1,2019-09-11T07:24:00Z,27.8398,-97.0727,1.839,11111222 
TCOON,ioos:station:TCOON:009:1,2019-09-11T08:24:00Z,27.8398,-97.0727,1.895,11111222 
TCOON,ioos:station:TCOON:009:1,2019-09-11T09:24:00Z,27.8398,-97.0727,1.873,11111222 
TCOON,ioos:station:TCOON:009:1,2019-09-11T10:24:00Z,27.8398,-97.0727,1.876,11111222 
TCOON,ioos:station:TCOON:009:1,2019-09-11T11:24:00Z,27.8398,-97.0727,1.837,11111222 
TCOON,ioos:station:TCOON:009:1,2019-09-11T12:24:00Z,27.8398,-97.0727,1.871,11111222 
TCOON,ioos:station:TCOON:009:1,2019-09-11T13:24:00Z,27.8398,-97.0727,1.895,11111222 
TCOON,ioos:station:TCOON:009:1,2019-09-11T14:24:00Z,27.8398,-97.0727,1.815,11111222 
TCOON,ioos:station:TCOON:009:1,2019-09-11T15:30:00Z,27.8398,-97.0727,1.923,11111222 
TCOON,ioos:station:TCOON:009:1,2019-09-11T16:24:00Z,27.8398,-97.0727,1.853,11111222 
TCOON,ioos:station:TCOON:009:1,2019-09-11T17:24:00Z,27.8398,-97.0727,1.893,11111222 
TCOON,ioos:station:TCOON:009:1,2019-09-11T18:24:00Z,27.8398,-97.0727,1.908,11111222 
TCOON,ioos:station:TCOON:009:1,2019-09-11T19:24:00Z,27.8398,-97.0727,1.901,11111222 
TCOON,ioos:station:TCOON:009:1,2019-09-11T20:24:00Z,27.8398,-97.0727,1.867,11111222 
TCOON,ioos:station:TCOON:009:1,2019-09-11T21:24:00Z,27.8398,-97.0727,1.814,11111222 
TCOON,ioos:station:TCOON:009:1,2019-09-11T22:24:00Z,27.8398,-97.0727,1.748,11111222 
TCOON,ioos:station:TCOON:009:1,2019-09-11T23:24:00Z,27.8398,-97.0727,1.769,11111222 
TCOON,ioos:station:TCOON:009:1,2019-09-12T00:24:00Z,27.8398,-97.0727,1.683,11111222 
TCOON,ioos:station:TCOON:009:1,2019-09-12T01:24:00Z,27.8398,-97.0727,1.621,11111222 
TCOON,ioos:station:TCOON:009:1,2019-09-12T02:24:00Z,27.8398,-97.0727,1.667,11111222 
TCOON,ioos:station:TCOON:009:1,2019-09-12T03:24:00Z,27.8398,-97.0727,1.708,11111222 
TCOON,ioos:station:TCOON:009:1,2019-09-12T04:24:00Z,27.8398,-97.0727,1.72,11111222 
TCOON,ioos:station:TCOON:009:1,2019-09-12T05:24:00Z,27.8398,-97.0727,1.776,11111222 
TCOON,ioos:station:TCOON:009:1,2019-09-12T06:24:00Z,27.8398,-97.0727,1.886,11111222 
TCOON,ioos:station:TCOON:009:1,2019-09-12T07:24:00Z,27.8398,-97.0727,1.866,11111222 
TCOON,ioos:station:TCOON:009:1,2019-09-12T08:24:00Z,27.8398,-97.0727,1.88,11111222 
TCOON,ioos:station:TCOON:009:1,2019-09-12T09:24:00Z,27.8398,-97.0727,1.94,11111222 
TCOON,ioos:station:TCOON:009:1,2019-09-12T10:24:00Z,27.8398,-97.0727,1.935,11111222 
TCOON,ioos:station:TCOON:009:1,2019-09-12T11:24:00Z,27.8398,-97.0727,1.927,11111222 
TCOON,ioos:station:TCOON:009:1,2019-09-12T12:24:00Z,27.8398,-97.0727,1.922,11111222 
TCOON,ioos:station:TCOON:009:1,2019-09-12T13:24:00Z,27.8398,-97.0727,1.974,11111222 
TCOON,ioos:station:TCOON:009:1,2019-09-12T14:24:00Z,27.8398,-97.0727,1.916,11111222 
TCOON,ioos:station:TCOON:009:1,2019-09-12T15:24:00Z,27.8398,-97.0727,1.933,11111222 
TCOON,ioos:station:TCOON:009:1,2019-09-13T19:24:00Z,27.8398,-97.0727,1.996,11111222 
TCOON,ioos:station:TCOON:009:1,2019-09-13T20:24:00Z,27.8398,-97.0727,1.998,11111222 
TCOON,ioos:station:TCOON:009:1,2019-09-13T21:24:00Z,27.8398,-97.0727,1.983,11111222 
TCOON,ioos:station:TCOON:009:1,2019-09-13T22:24:00Z,27.8398,-97.0727,1.97,11111222 
TCOON,ioos:station:TCOON:009:1,2019-09-13T23:24:00Z,27.8398,-97.0727,1.922,11111222 
TCOON,ioos:station:TCOON:009:1,2019-09-14T00:24:00Z,27.8398,-97.0727,1.901,11111222 
TCOON,ioos:station:TCOON:009:1,2019-09-14T01:24:00Z,27.8398,-97.0727,1.848,11111222 